Flag for Sweden Weather past 2 weeks in Uppsala, Sweden

Now
88 °F

Passing clouds.


Feels Like: 85 °F
Forecast: 59 / 85 °F
Wind: 9 mph from East

Location: Stockholm / Arlanda

Current Time: Jul 24, 2014 at 3:30:30 PM

Latest Report: Jul 24, 2014 at 2:50 PM


Visibility: N/A

Pressure: 30.15 "Hg

Humidity: 27%

Dew point: 50 °F

Location of UppsalaLocation

Historic Weather in Uppsala — Graph

°F

Uppsala temperature yesterday

Maximum temperature yesterday: 84 °F (at 3:20 PM)
Minimum temperature yesterday: 52 °F (at 4:20 AM)
Average temperature yesterday: 71 °F

Past Weeks' High & Low Weather Summary

 TemperatureHumidityPressure
High88 °F (Jul 24, 1:20 PM)100% (Jul 12, 2:20 AM)30.30 "Hg (Jul 12, 2:20 AM)
Low46 °F (Jul 12, 2:20 AM)25% (Jul 23, 3:50 PM)29.71 "Hg (Jul 13, 7:50 PM)
Average67 °F70%30.05 "Hg
* Reported Jul 9 2:50 PM — Jul 24 2:20 PM, Uppsala, Weather by CustomWeather, © 2014

Note: Actual official high and low records may vary slightly from our data, if they occured in-between our weather recording intervals... More about our weather records

Advertising

Uppsala weather history for previous 24 hours

 ConditionsComfort  
Time TempWeatherWind HumidityBarometerVisibility
2:20 PM
Jul 24
88 °FSunny.12 mph29%30.18 "Hg10 mi
1:50 PM88 °FScattered clouds.10 mph29%30.18 "HgN/A
1:20 PM88 °FPassing clouds.9 mph31%30.18 "HgN/A
12:50 PM86 °FPassing clouds.8 mph31%30.18 "HgN/A
12:20 PM86 °FPassing clouds.8 mph31%30.18 "HgN/A
11:50 AM84 °FPassing clouds.7 mph33%30.18 "HgN/A
11:20 AM84 °FPassing clouds.6 mph33%30.18 "HgN/A
10:50 AM82 °FPassing clouds.3 mph42%30.18 "HgN/A
10:20 AM81 °FSunny.2 mph48%30.21 "Hg10 mi
9:50 AM79 °FSunny.2 mph48%30.18 "Hg10 mi
9:20 AM77 °FSunny.2 mph47%30.21 "Hg10 mi
8:50 AM75 °FSunny.No wind57%30.18 "Hg10 mi
8:20 AM72 °FSunny.2 mph65%30.18 "Hg10 mi
7:50 AM72 °FPassing clouds.3 mph65%30.18 "HgN/A
7:20 AM70 °FSunny.3 mph69%30.18 "Hg10 mi
6:50 AM66 °FSunny.No wind73%30.18 "Hg10 mi
6:20 AM64 °FSunny.2 mph78%30.18 "Hg10 mi
5:50 AM61 °FSunny.No wind88%30.21 "Hg10 mi
5:20 AM59 °FSunny.3 mph88%30.21 "Hg10 mi
4:50 AM57 °FClear.6 mph94%30.21 "Hg10 mi
4:20 AM57 °FClear.5 mph94%30.21 "Hg10 mi
3:50 AM59 °FClear.3 mph88%30.21 "Hg10 mi
3:20 AM59 °FClear.2 mph88%30.21 "Hg10 mi
2:50 AM63 °FClear.1 mph77%30.21 "Hg10 mi
2:20 AM64 °FClear.5 mph73%30.21 "Hg10 mi
1:50 AM64 °FClear.6 mph73%30.21 "Hg10 mi
1:20 AM64 °FClear.5 mph68%30.21 "Hg10 mi
12:50 AM63 °FClear.5 mph73%30.21 "Hg10 mi
12:20 AM64 °FClear.5 mph68%30.21 "Hg10 mi
11:50 PM
Jul 23
66 °FClear.5 mph64%30.21 "Hg10 mi
11:20 PM68 °FClear.3 mph60%30.21 "Hg10 mi
10:50 PM72 °FClear.6 mph50%30.21 "Hg10 mi
10:20 PM68 °FSunny.6 mph60%30.21 "Hg10 mi
9:50 PM68 °FSunny.2 mph69%30.21 "Hg10 mi
9:20 PM70 °FSunny.3 mph69%30.21 "Hg10 mi
8:50 PM77 °FSunny.5 mph39%30.21 "Hg10 mi
8:20 PM79 °FSunny.6 mph37%30.18 "Hg10 mi
7:50 PM81 °FSunny.7 mph34%30.18 "Hg10 mi
7:20 PM82 °FSunny.8 mph28%30.21 "Hg10 mi
6:50 PM82 °FSunny.9 mph30%30.21 "Hg10 mi
6:20 PM82 °FSunny.9 mph30%30.21 "Hg10 mi
5:50 PM84 °FSunny.8 mph27%30.21 "Hg10 mi
5:20 PM84 °FPassing clouds.7 mph27%30.21 "HgN/A
4:50 PM84 °FPassing clouds.5 mph25%30.21 "HgN/A
4:20 PM82 °FPassing clouds.6 mph28%30.24 "HgN/A
3:50 PM84 °FPassing clouds.7 mph25%30.24 "HgN/A
3:20 PM84 °FPassing clouds.6 mph27%30.24 "HgN/A
Weather by CustomWeather, © 2014

See weather overviewHow to use our weather pages